User: anonymous   Login
Location: Caltech
(34.1382°N, 118.1253°W)
Time: 00:49:06
(UTC-07:00)
Language:

Iridium 91 - Orbit

View from above orbital plane
View from above orbital plane
View from above satellite
View from above satellite

Ground track
Ground track

The orbit data is extracted from the following two-line orbital elements,

1 27372U 02005A   17143.46981587 +.00000012 +00000-0 -29526-5 0  9995
2 27372 086.3936 297.4959 0002464 098.7494 317.3647 14.34214048808086
Epoch (UTC): 23 May 2017 11:16:32
Eccentricity: 0.0002464
inclination: 86.3936°
perigee height: 776 km
apogee height: 779 km
right ascension of ascending node: 297.4959°
argument of perigee: 98.7494°
revolutions per day: 14.34214048
mean anomaly at epoch: 317.3647°
orbit number at epoch: 80808

The dashed part of the orbit path shows where the satellite is in the earth's shadow,  

DLR